Home   Weather   Thompson   Past weeks

Flag for Canada Past Weather in Thompson, Manitoba, Canada — Yesterday and Last 2 Weeks

Now
30 °F

Light snow. Ice fog.


Feels Like: 25 °F
Forecast: 27 / 31 °F
Wind: 5 mph from Northeast

Location: Thompson

Current Time: Jan 22, 2017 at 2:08:06 am

Latest Report: Jan 22, 2017 at 1:00 am


Visibility: 4 mi

Pressure: 29.75 "Hg

Humidity: 93%

Dew Point: 28 °F

Location of ThompsonLocation

Past Weather in Thompson — Graph

°F

Thompson Temperature Yesterday

Maximum temperature yesterday: 30 °F (at 11:45 am)
Minimum temperature yesterday: 27 °F (at 12:00 am)
Average temperature yesterday: 29 °F

High & Low Weather Summary for the Past Weeks

 TemperatureHumidityPressure
High34 °F (Jan 17, 12:00 pm)100% (Jan 19, 6:00 am)30.51 "Hg (Jan 19, 6:00 am)
Low-40 °F (Jan 11, 10:00 pm)60% (Jan 12, 11:00 am)29.18 "Hg (Jan 17, 3:00 pm)
Average5 °F82%29.85 "Hg
* Reported Jan 7 12:00 am — Jan 22 12:00 am, Thompson, Weather by CustomWeather, © 2017

Note: Actual official high and low records may vary slightly from our data, if they occured in-between our weather recording intervals... More about our weather records

Advertising

Thompson Weather History for the Previous 24 Hours

Scroll right to see more
 ConditionsComfort  
Time TempWeatherWind HumidityBarometerVisibility
12:00 am
Sun, Jan 22
30 °FLight snow. Ice fog.5 mph93%29.74 "Hg5 mi
11:49 pm
Sat, Jan 21
30 °FLight snow. Ice fog.5 mph93%29.73 "Hg5 mi
11:00 pm30 °FLight snow. Ice fog.5 mph93%29.73 "Hg2 mi
10:17 pm30 °FLight snow. Ice fog.5 mph93%29.72 "Hg2 mi
10:00 pm30 °FLight mixture of precip. Ice fog.5 mph93%29.72 "Hg2 mi
9:00 pm30 °FLight mixture of precip. Ice fog.6 mph93%29.71 "Hg2 mi
8:41 pm30 °FLight mixture of precip. Ice fog.6 mph93%29.71 "Hg2 mi
8:00 pm30 °FLight mixture of precip. Ice fog.6 mph93%29.70 "Hg6 mi
7:00 pm30 °FLight mixture of precip. Ice fog.6 mph93%29.70 "Hg5 mi
6:00 pm30 °FLight mixture of precip. Ice fog.6 mph93%29.69 "Hg5 mi
5:00 pm30 °FLight mixture of precip. Ice fog.6 mph93%29.69 "Hg5 mi
4:41 pm30 °FLight freezing rain. Ice fog.8 mph93%29.68 "Hg4 mi
4:00 pm30 °FLight freezing rain. Ice fog.8 mph93%29.67 "Hg2 mi
3:47 pm30 °FLight freezing rain. Ice fog.7 mph93%29.66 "Hg2 mi
3:18 pm30 °FLight mixture of precip. Ice fog.8 mph93%29.65 "Hg5 mi
2:00 pm30 °FLight snow. Ice fog.8 mph93%29.64 "Hg5 mi
1:00 pm30 °FLight snow. Ice fog.7 mph93%29.63 "Hg5 mi
12:22 pm30 °FLight snow. Ice fog.5 mph93%29.63 "Hg3 mi
11:45 am30 °FIce fog.6 mph93%29.64 "Hg8 mi
11:00 am28 °FLight snow. Ice fog.7 mph100%29.64 "Hg6 mi
10:00 am28 °FLight snow. Ice fog.6 mph93%29.63 "Hg6 mi
9:00 am28 °FLight snow. Ice fog.7 mph93%29.63 "Hg3 mi
8:28 am28 °FLight snow. Ice fog.6 mph93%29.62 "Hg4 mi
8:00 am28 °FLight snow. Ice fog.6 mph93%29.63 "Hg1 mi
7:11 am27 °FLight snow. Ice fog.6 mph100%29.63 "Hg1 mi
7:00 am27 °FIce fog.6 mph100%29.63 "Hg1 mi
6:45 am27 °FIce fog.6 mph100%29.63 "Hg1 mi
6:00 am27 °FIce fog.6 mph100%29.62 "Hg3 mi
5:00 am27 °FIce fog.6 mph93%29.62 "Hg6 mi
4:48 am27 °FIce fog.6 mph93%29.62 "Hg6 mi
4:00 am27 °FLight snow. Ice fog.3 mph93%29.62 "Hg2 mi
3:00 am27 °FLight snow. Ice fog.5 mph93%29.63 "Hg3 mi
2:19 am27 °FLight snow. Ice fog.6 mph93%29.62 "Hg3 mi
2:00 am27 °FLight snow. Ice fog.5 mph93%29.62 "Hg1 mi
Weather by CustomWeather, © 2017

See weather overviewHow to use our weather pages